Time,TemperatureF,DewpointF,PressureIn,WindDirection,WindDirectionDegrees,WindSpeedMPH,WindSpeedGustMPH,Humidity,HourlyPrecipIn,Conditions,Clouds,dailyrainin,SoftwareType,DateUTC
2013-05-20 00:01:00,42.0,41.0,-100.00,NNE,16,0.0,0.0,95,0.00,,,-99.99,,2013-05-20 07:01:00,
2013-05-20 00:11:00,42.0,41.0,-100.00,NW,325,0.0,0.0,95,0.00,,,-99.99,,2013-05-20 07:11:00,
2013-05-20 00:21:00,42.0,41.0,-100.00,NW,325,0.0,0.0,95,0.00,,,-99.99,,2013-05-20 07:21:00,
2013-05-20 00:32:00,42.0,41.0,-100.00,NW,325,0.0,0.0,95,0.00,,,-99.99,,2013-05-20 07:32:00,
2013-05-20 00:41:00,41.0,40.0,-100.00,NW,313,0.0,0.0,95,0.00,,,-99.99,,2013-05-20 07:41:00,
2013-05-20 00:52:00,41.0,40.0,-100.00,NW,319,0.0,0.0,95,0.00,,,-99.99,,2013-05-20 07:52:00,
2013-05-20 01:01:00,41.0,40.0,-100.00,NW,319,0.0,0.0,95,0.00,,,-99.99,,2013-05-20 08:01:00,
2013-05-20 01:11:00,41.0,40.0,-100.00,NW,323,0.0,0.0,95,0.00,,,-99.99,,2013-05-20 08:11:00,
2013-05-20 01:21:00,41.0,39.0,-100.00,NW,325,0.0,0.0,95,0.00,,,-99.99,,2013-05-20 08:21:00,
2013-05-20 01:31:00,41.0,39.0,-100.00,NW,325,0.0,0.0,95,0.00,,,-99.99,,2013-05-20 08:31:00,
2013-05-20 01:41:00,40.0,39.0,-100.00,NW,311,2.0,2.0,96,0.00,,,-99.99,,2013-05-20 08:41:00,
2013-05-20 01:52:00,40.0,39.0,-100.00,NW,311,2.0,2.0,96,0.00,,,-99.99,,2013-05-20 08:52:00,
2013-05-20 02:00:00,41.0,40.0,-100.00,NNE,30,0.0,0.0,96,0.00,,,-99.99,,2013-05-20 09:00:00,
2013-05-20 02:01:00,40.0,39.0,-100.00,NW,311,2.0,2.0,96,0.00,,,-99.99,,2013-05-20 09:01:00,
2013-05-20 02:12:00,40.0,38.0,-100.00,NW,311,0.0,0.0,96,0.00,,,-99.99,,2013-05-20 09:12:00,
2013-05-20 02:21:00,41.0,40.0,-100.00,NNE,30,0.0,0.0,96,0.00,,,-99.99,,2013-05-20 09:21:00,
2013-05-20 02:32:00,41.0,40.0,-100.00,NNE,30,0.0,0.0,96,0.00,,,-99.99,,2013-05-20 09:32:00,
2013-05-20 02:43:00,41.0,40.0,-100.00,NNE,30,0.0,0.0,96,0.00,,,-99.99,,2013-05-20 09:43:00,
2013-05-20 02:52:00,41.0,40.0,-100.00,NNE,30,0.0,0.0,96,0.00,,,-99.99,,2013-05-20 09:52:00,
2013-05-20 05:42:00,39.0,38.0,-100.00,NW,316,2.0,3.0,96,0.00,,,-99.99,,2013-05-20 12:42:00,
2013-05-20 05:52:00,38.0,38.0,-100.00,NW,308,1.0,2.0,96,0.00,,,-99.99,,2013-05-20 12:52:00,
2013-05-20 06:01:00,38.0,38.0,-100.00,NW,308,1.0,2.0,96,0.00,,,-99.99,,2013-05-20 13:01:00,
2013-05-20 06:11:00,39.0,38.0,-100.00,NW,316,1.0,2.0,96,0.00,,,-99.99,,2013-05-20 13:11:00,
2013-05-20 06:22:00,39.0,38.0,-100.00,NW,316,1.0,2.0,96,0.00,,,-99.99,,2013-05-20 13:22:00,
2013-05-20 06:31:00,39.0,38.0,-100.00,NW,316,1.0,2.0,96,0.00,,,-99.99,,2013-05-20 13:31:00,
2013-05-20 06:41:00,40.0,39.0,-100.00,NW,318,0.0,0.0,96,0.00,,,-99.99,,2013-05-20 13:41:00,
2013-05-20 06:52:00,42.0,41.0,-100.00,SSE,160,0.0,0.0,96,0.00,,,-99.99,,2013-05-20 13:52:00,
2013-05-20 07:01:00,42.0,41.0,-100.00,SSE,160,0.0,0.0,96,0.00,,,-99.99,,2013-05-20 14:01:00,
2013-05-20 07:11:00,44.0,43.0,-100.00,South,172,0.0,2.0,96,0.00,,,-99.99,,2013-05-20 14:11:00,
2013-05-20 07:21:00,44.0,43.0,-100.00,South,172,0.0,2.0,96,0.00,,,-99.99,,2013-05-20 14:21:00,
2013-05-20 07:31:00,44.0,43.0,-100.00,South,172,0.0,2.0,96,0.00,,,-99.99,,2013-05-20 14:31:00,
2013-05-20 07:41:00,46.0,45.0,-100.00,East,96,1.0,2.0,95,0.00,,,-99.99,,2013-05-20 14:41:00,
2013-05-20 07:52:00,48.0,47.0,-100.00,East,95,2.0,2.0,95,0.00,,,-99.99,,2013-05-20 14:52:00,
2013-05-20 08:01:00,48.0,47.0,-100.00,East,95,2.0,2.0,95,0.00,,,-99.99,,2013-05-20 15:01:00,
2013-05-20 08:11:00,50.0,49.0,-100.00,East,90,2.0,3.0,95,0.00,,,-99.99,,2013-05-20 15:11:00,
2013-05-20 08:21:00,50.0,49.0,-100.00,East,90,2.0,3.0,95,0.00,,,-99.99,,2013-05-20 15:21:00,
2013-05-20 08:33:00,50.0,49.0,-100.00,East,90,2.0,3.0,95,0.00,,,-99.99,,2013-05-20 15:33:00,
2013-05-20 08:42:00,52.0,49.0,-100.00,East,100,1.0,2.0,90,0.00,,,-99.99,,2013-05-20 15:42:00,
2013-05-20 08:53:00,54.0,48.0,-100.00,ESE,123,1.0,2.0,79,0.00,,,-99.99,,2013-05-20 15:53:00,
2013-05-20 09:02:00,54.0,48.0,-100.00,ESE,123,1.0,2.0,79,0.00,,,-99.99,,2013-05-20 16:02:00,
2013-05-20 09:12:00,56.0,48.0,-100.00,ESE,120,2.0,3.0,74,0.00,,,-99.99,,2013-05-20 16:12:00,
2013-05-20 09:22:00,56.0,48.0,-100.00,ESE,120,2.0,3.0,74,0.00,,,-99.99,,2013-05-20 16:22:00,
2013-05-20 09:32:00,56.0,48.0,-100.00,ESE,120,2.0,3.0,74,0.00,,,-99.99,,2013-05-20 16:32:00,
2013-05-20 09:42:00,56.0,48.0,-100.00,ESE,120,2.0,3.0,74,0.00,,,-99.99,,2013-05-20 16:42:00,
2013-05-20 09:53:00,57.0,46.0,-100.00,SSW,198,2.0,5.0,67,0.00,,,-99.99,,2013-05-20 16:53:00,
2013-05-20 10:02:00,57.0,46.0,-100.00,SSW,198,2.0,5.0,67,0.00,,,-99.99,,2013-05-20 17:02:00,
2013-05-20 10:12:00,58.0,43.0,-100.00,SE,145,4.0,6.0,57,0.00,,,-99.99,,2013-05-20 17:12:00,
2013-05-20 10:22:00,59.0,46.0,-100.00,SSW,198,2.0,4.0,62,0.00,,,-99.99,,2013-05-20 17:22:00,
2013-05-20 10:32:00,59.0,46.0,-100.00,SSW,198,2.0,4.0,62,0.00,,,-99.99,,2013-05-20 17:32:00,
2013-05-20 10:45:00,60.0,44.0,-100.00,SSE,168,3.0,7.0,55,0.00,,,-99.99,,2013-05-20 17:45:00,
2013-05-20 10:53:00,60.0,44.0,-100.00,SSE,168,3.0,7.0,55,0.00,,,-99.99,,2013-05-20 17:53:00,
2013-05-20 11:02:00,60.0,44.0,-100.00,SSE,168,3.0,7.0,55,0.00,,,-99.99,,2013-05-20 18:02:00,
2013-05-20 11:12:00,62.0,44.0,-100.00,SW,227,1.0,2.0,52,0.00,,,-99.99,,2013-05-20 18:12:00,
2013-05-20 11:23:00,63.0,45.0,-100.00,SE,128,3.0,6.0,52,0.00,,,-99.99,,2013-05-20 18:23:00,
2013-05-20 11:32:00,63.0,45.0,-100.00,SE,128,3.0,6.0,52,0.00,,,-99.99,,2013-05-20 18:32:00,
2013-05-20 11:41:00,64.0,44.0,-100.00,South,186,3.0,7.0,48,0.00,,,-99.99,,2013-05-20 18:41:00,
2013-05-20 11:55:00,64.0,44.0,-100.00,South,186,3.0,7.0,48,0.00,,,-99.99,,2013-05-20 18:55:00,
2013-05-20 12:04:00,64.0,44.0,-100.00,South,186,3.0,7.0,48,0.00,,,-99.99,,2013-05-20 19:04:00,
2013-05-20 12:11:00,66.0,44.0,-100.00,SSE,158,3.0,5.0,45,0.00,,,-99.99,,2013-05-20 19:11:00,
2013-05-20 12:21:00,66.0,42.0,-100.00,SSW,205,3.0,6.0,41,0.00,,,-99.99,,2013-05-20 19:21:00,
2013-05-20 12:32:00,66.0,42.0,-100.00,SSW,205,3.0,6.0,41,0.00,,,-99.99,,2013-05-20 19:32:00,
2013-05-20 12:41:00,68.0,42.0,-100.00,SE,128,2.0,4.0,39,0.00,,,-99.99,,2013-05-20 19:41:00,
2013-05-20 12:52:00,68.0,42.0,-100.00,SE,128,2.0,4.0,39,0.00,,,-99.99,,2013-05-20 19:52:00,
2013-05-20 13:01:00,68.0,42.0,-100.00,SE,128,2.0,4.0,39,0.00,,,-99.99,,2013-05-20 20:01:00,
2013-05-20 13:11:00,68.0,41.0,-100.00,SSW,208,3.0,6.0,37,0.00,,,-99.99,,2013-05-20 20:11:00,
2013-05-20 13:21:00,68.0,42.0,-100.00,ESE,103,4.0,8.0,39,0.00,,,-99.99,,2013-05-20 20:21:00,
2013-05-20 13:32:00,68.0,42.0,-100.00,ESE,103,4.0,8.0,39,0.00,,,-99.99,,2013-05-20 20:32:00,
2013-05-20 13:42:00,68.0,41.0,-100.00,East,96,1.0,2.0,37,0.00,,,-99.99,,2013-05-20 20:42:00,
2013-05-20 13:52:00,69.0,38.0,-100.00,South,188,4.0,5.0,32,0.00,,,-99.99,,2013-05-20 20:52:00,
2013-05-20 14:01:00,69.0,38.0,-100.00,South,188,4.0,5.0,32,0.00,,,-99.99,,2013-05-20 21:01:00,
2013-05-20 14:11:00,69.0,40.0,-100.00,SE,128,2.0,5.0,34,0.00,,,-99.99,,2013-05-20 21:11:00,
2013-05-20 14:21:00,71.0,39.0,-100.00,SW,219,2.0,4.0,32,0.00,,,-99.99,,2013-05-20 21:21:00,
2013-05-20 14:32:00,71.0,39.0,-100.00,SW,219,2.0,4.0,32,0.00,,,-99.99,,2013-05-20 21:32:00,
2013-05-20 14:43:00,70.0,42.0,-100.00,NE,52,1.0,2.0,37,0.00,,,-99.99,,2013-05-20 21:43:00,
2013-05-20 14:53:00,69.0,43.0,-100.00,NW,308,3.0,5.0,39,0.00,,,-99.99,,2013-05-20 21:53:00,
2013-05-20 15:02:00,69.0,43.0,-100.00,NW,308,3.0,5.0,39,0.00,,,-99.99,,2013-05-20 22:02:00,
2013-05-20 15:12:00,70.0,39.0,-100.00,WSW,256,3.0,5.0,32,0.00,,,-99.99,,2013-05-20 22:12:00,
2013-05-20 15:22:00,70.0,39.0,-100.00,WSW,256,3.0,5.0,32,0.00,,,-99.99,,2013-05-20 22:22:00,
2013-05-20 15:33:00,70.0,39.0,-100.00,WSW,256,3.0,5.0,32,0.00,,,-99.99,,2013-05-20 22:33:00,
2013-05-20 15:42:00,70.0,39.0,-100.00,SSW,199,4.0,7.0,32,0.00,,,-99.99,,2013-05-20 22:42:00,
2013-05-20 15:52:00,70.0,40.0,-100.00,ESE,121,3.0,5.0,33,0.00,,,-99.99,,2013-05-20 22:52:00,
2013-05-20 16:02:00,70.0,40.0,-100.00,ESE,121,3.0,5.0,33,0.00,,,-99.99,,2013-05-20 23:02:00,
2013-05-20 16:12:00,70.0,40.0,-100.00,SE,141,3.0,6.0,34,0.00,,,-99.99,,2013-05-20 23:12:00,
2013-05-20 16:22:00,70.0,40.0,-100.00,SE,141,3.0,6.0,34,0.00,,,-99.99,,2013-05-20 23:22:00,
2013-05-20 16:32:00,70.0,40.0,-100.00,SE,141,3.0,6.0,34,0.00,,,-99.99,,2013-05-20 23:32:00,
2013-05-20 16:42:00,70.0,38.0,-100.00,SSW,209,2.0,3.0,31,0.00,,,-99.99,,2013-05-20 23:42:00,
2013-05-20 16:53:00,71.0,41.0,-100.00,South,175,4.0,8.0,34,0.00,,,-99.99,,2013-05-20 23:53:00,
2013-05-20 17:01:00,71.0,41.0,-100.00,South,175,4.0,8.0,34,0.00,,,-99.99,,2013-05-21 00:01:00,
2013-05-20 17:11:00,71.0,39.0,-100.00,SSE,168,2.0,6.0,32,0.00,,,-99.99,,2013-05-21 00:11:00,
2013-05-20 17:21:00,69.0,41.0,-100.00,North,6,1.0,2.0,37,0.00,,,-99.99,,2013-05-21 00:21:00,
2013-05-20 17:31:00,69.0,41.0,-100.00,North,6,1.0,2.0,37,0.00,,,-99.99,,2013-05-21 00:31:00,
2013-05-20 17:41:00,70.0,41.0,-100.00,SSE,162,3.0,5.0,35,0.00,,,-99.99,,2013-05-21 00:41:00,
2013-05-20 17:52:00,70.0,41.0,-100.00,SSE,162,3.0,5.0,35,0.00,,,-99.99,,2013-05-21 00:52:00,
2013-05-20 18:01:00,70.0,41.0,-100.00,SSE,162,3.0,5.0,35,0.00,,,-99.99,,2013-05-21 01:01:00,
2013-05-20 18:11:00,71.0,40.0,-100.00,SW,229,2.0,3.0,33,0.00,,,-99.99,,2013-05-21 01:11:00,
2013-05-20 18:21:00,70.0,39.0,-100.00,South,176,2.0,3.0,33,0.00,,,-99.99,,2013-05-21 01:21:00,
2013-05-20 18:32:00,70.0,39.0,-100.00,South,176,2.0,3.0,33,0.00,,,-99.99,,2013-05-21 01:32:00,
2013-05-20 18:42:00,69.0,39.0,-100.00,SSW,205,2.0,2.0,33,0.00,,,-99.99,,2013-05-21 01:42:00,
2013-05-20 18:52:00,68.0,41.0,-100.00,NW,309,0.0,1.0,38,0.00,,,-99.99,,2013-05-21 01:52:00,
2013-05-20 19:01:00,68.0,41.0,-100.00,NW,309,0.0,1.0,38,0.00,,,-99.99,,2013-05-21 02:01:00,
2013-05-20 19:11:00,65.0,44.0,-100.00,SSE,162,0.0,0.0,45,0.00,,,-99.99,,2013-05-21 02:11:00,
2013-05-20 19:21:00,64.0,45.0,-100.00,WNW,288,0.0,1.0,51,0.00,,,-99.99,,2013-05-21 02:21:00,
2013-05-20 19:32:00,64.0,45.0,-100.00,WNW,288,0.0,1.0,51,0.00,,,-99.99,,2013-05-21 02:32:00,
2013-05-20 19:41:00,63.0,50.0,-100.00,WNW,288,0.0,1.0,64,0.00,,,-99.99,,2013-05-21 02:41:00,
2013-05-20 19:52:00,63.0,50.0,-100.00,WNW,288,0.0,1.0,64,0.00,,,-99.99,,2013-05-21 02:52:00,
2013-05-20 20:01:00,63.0,50.0,-100.00,WNW,288,0.0,1.0,64,0.00,,,-99.99,,2013-05-21 03:01:00,
2013-05-20 20:11:00,61.0,46.0,-100.00,NW,313,0.0,1.0,58,0.00,,,-99.99,,2013-05-21 03:11:00,
2013-05-20 20:21:00,60.0,47.0,-100.00,WNW,289,1.0,1.0,63,0.00,,,-99.99,,2013-05-21 03:21:00,
2013-05-20 20:33:00,60.0,47.0,-100.00,WNW,289,1.0,1.0,63,0.00,,,-99.99,,2013-05-21 03:33:00,
2013-05-20 20:42:00,58.0,47.0,-100.00,NW,306,2.0,3.0,66,0.00,,,-99.99,,2013-05-21 03:42:00,
2013-05-20 20:53:00,56.0,47.0,-100.00,NW,313,0.0,0.0,70,0.00,,,-99.99,,2013-05-21 03:53:00,
2013-05-20 21:03:00,56.0,47.0,-100.00,NW,313,0.0,0.0,70,0.00,,,-99.99,,2013-05-21 04:03:00,
2013-05-20 21:12:00,54.0,45.0,-100.00,NW,313,0.0,0.0,69,0.00,,,-99.99,,2013-05-21 04:12:00,
2013-05-20 21:23:00,54.0,45.0,-100.00,NW,313,0.0,0.0,69,0.00,,,-99.99,,2013-05-21 04:23:00,
2013-05-20 21:33:00,54.0,45.0,-100.00,NW,313,0.0,0.0,69,0.00,,,-99.99,,2013-05-21 04:33:00,
2013-05-20 21:42:00,53.0,45.0,-100.00,NNE,30,0.0,0.0,75,0.00,,,-99.99,,2013-05-21 04:42:00,
2013-05-20 21:53:00,52.0,46.0,-100.00,West,261,1.0,1.0,80,0.00,,,-99.99,,2013-05-21 04:53:00,
2013-05-20 22:02:00,52.0,46.0,-100.00,West,261,1.0,1.0,80,0.00,,,-99.99,,2013-05-21 05:02:00,
2013-05-20 22:11:00,52.0,47.0,-100.00,NW,320,0.0,0.0,81,0.00,,,-99.99,,2013-05-21 05:11:00,
2013-05-20 22:21:00,52.0,47.0,-100.00,NW,320,0.0,0.0,81,0.00,,,-99.99,,2013-05-21 05:21:00,
2013-05-20 22:31:00,52.0,47.0,-100.00,NW,320,0.0,0.0,81,0.00,,,-99.99,,2013-05-21 05:31:00,
2013-05-20 22:42:00,51.0,46.0,-100.00,WNW,298,0.0,1.0,82,0.00,,,-99.99,,2013-05-21 05:42:00,
2013-05-20 22:52:00,50.0,46.0,-100.00,NE,37,0.0,0.0,84,0.00,,,-99.99,,2013-05-21 05:52:00,
2013-05-20 23:02:00,50.0,46.0,-100.00,NE,37,0.0,0.0,84,0.00,,,-99.99,,2013-05-21 06:02:00,
2013-05-20 23:11:00,50.0,46.0,-100.00,NE,37,0.0,0.0,84,0.00,,,-99.99,,2013-05-21 06:11:00,
2013-05-20 23:21:00,50.0,45.0,-100.00,SW,223,0.0,1.0,85,0.00,,,-99.99,,2013-05-21 06:21:00,
2013-05-20 23:32:00,50.0,45.0,-100.00,SW,223,0.0,1.0,85,0.00,,,-99.99,,2013-05-21 06:32:00,
2013-05-20 23:41:00,48.0,45.0,-100.00,NNE,18,1.0,1.0,87,0.00,,,-99.99,,2013-05-21 06:41:00,
2013-05-20 23:52:00,48.0,45.0,-100.00,NNW,333,0.0,1.0,87,0.00,,,-99.99,,2013-05-21 06:52:00,